Weather History for Alexandria, Egypt

Change the Weather History Date:

Thursday, November 15, 2012

  Actual Average Record
Temperature  
Mean Temperature 68 °F -  
Max Temperature 78 °F 68 °F 86 °F (2004)
Min Temperature 58 °F 53 °F 50 °F (1998)
Cooling Degree Days 3    
Growing Degree Days 18 (Base 50)    
Moisture  
Dew Point 59 °F    
Average Humidity 75    
Maximum Humidity 100    
Minimum Humidity 39    
Precipitation  
Precipitation 0.00 in 0.05 in - ()
Sea Level Pressure  
Sea Level Pressure 30.05 in    
Wind  
Wind Speed 3 mph ()    
Max Wind Speed 12 mph    
Max Gust Speed -    
Visibility 5.5 miles    
Events      
Averages and records for this station are not official NWS values.
T = Trace of Precipitation, MM = Missing Value Source: Averaged Metar Reports

Daily Weather History Graph

Daily Weather History Graph

Search for Another Location

Airport:

Trip Planner

Search our weather history database for the weather conditions in past years. The results will help you decide how hot, cold, wet, or windy it might be!

Date:

Astronomy

Nov. 15, 2012 Rise Set
Actual Time 6:27 AM EET 5:01 PM EET
Civil Twilight 6:01 AM EET 5:27 PM EET
Nautical Twilight 5:32 AM EET 5:56 PM EET
Astronomical Twilight 5:03 AM EET 6:25 PM EET
Moon 7:57 AM EET (11/15) 6:36 PM EET (11/15)
Length of Visible Light 11h 25m
Length of Day
10h 34m
Waxing Crescent, 3% of the Moon is Illuminated
Nov 15
Waxing Crescent
Nov 20
First Quarter
Nov 28
Full
Dec 6
Last Quarter
Dec 13
New

Hourly Weather History & Observations

Time (EET) Temp. Dew Point Humidity Pressure Visibility Wind Dir Wind Speed Gust Speed Precip Events Conditions
12:00 AM 60.8 °F 57.2 °F 88% 30.06 in 6.2 mi Calm Calm - N/A   Partly Cloudy
1:00 AM 59.0 °F 57.2 °F 94% 30.06 in - Calm Calm - N/A   Clear
2:00 AM 59 °F 56 °F 88% 30.06 in 6 mi Calm Calm - -  
2:00 AM 59.0 °F 57.2 °F 94% 30.06 in - Calm Calm - N/A   Clear
3:00 AM 57.2 °F 57.2 °F 100% 30.06 in - Calm Calm - N/A   Clear
4:00 AM 59.0 °F 57.2 °F 94% 30.06 in - Calm Calm - N/A   Clear
5:00 AM 59.0 °F 57.2 °F 94% 30.06 in - Calm Calm - N/A   Clear
6:00 AM 59.0 °F 57.2 °F 94% 30.06 in 3.7 mi Calm Calm - N/A   Unknown
7:00 AM 59.0 °F 57.2 °F 94% 30.06 in 3.7 mi Calm Calm - N/A   Unknown
8:00 AM 62 °F 58 °F 84% 30.09 in 4 mi Calm Calm - -   Mist
8:00 AM 62.6 °F 59.0 °F 88% 30.09 in 3.7 mi Calm Calm - N/A   Unknown
9:00 AM 69.8 °F 60.8 °F 73% 30.09 in - ESE 4.6 mph - N/A   Clear
10:00 AM 73.4 °F 60.8 °F 65% 30.09 in - East 5.8 mph - N/A   Clear
11:00 AM 75.2 °F 59.0 °F 57% 30.06 in - East 6.9 mph - N/A   Clear
12:00 PM 77.0 °F 57.2 °F 50% 30.06 in 6.2 mi East 6.9 mph - N/A   Partly Cloudy
1:00 PM 78.8 °F 55.4 °F 44% 30.04 in 6.2 mi East 6.9 mph - N/A   Partly Cloudy
2:00 PM 77 °F 57 °F 39% 30.04 in 6 mi NE 8.1 mph - -   Scattered Clouds
2:00 PM 77.0 °F 57.2 °F 50% 30.04 in 6.2 mi NE 8.1 mph - N/A   Partly Cloudy
3:00 PM 75.2 °F 59.0 °F 57% 30.01 in 6.2 mi NE 9.2 mph - N/A   Partly Cloudy
4:00 PM 73.4 °F 60.8 °F 65% 30.04 in 6.2 mi NE 11.5 mph - N/A   Partly Cloudy
5:00 PM 78.8 °F 60.8 °F 54% 30.04 in 6.2 mi East 6.9 mph - N/A   Partly Cloudy
6:00 PM 69.8 °F 60.8 °F 73% 30.01 in - ENE 8.1 mph - N/A   Clear
7:00 PM 69.8 °F 60.8 °F 73% 30.04 in - ENE 9.2 mph - N/A   Clear
8:00 PM 69 °F 60 °F 66% 30.04 in 6 mi ENE 8.1 mph - -  
8:00 PM 69.8 °F 60.8 °F 73% 30.04 in - ENE 8.1 mph - N/A   Clear
9:00 PM 68.0 °F 60.8 °F 78% 30.04 in - ENE 5.8 mph - N/A   Clear
10:00 PM 66.2 °F 60.8 °F 83% 30.04 in - East 5.8 mph - N/A   Clear
11:00 PM 66.2 °F 60.8 °F 83% 30.04 in - East 6.9 mph - N/A   Clear